Chadron, NE

4:06 AM MST on January 18, 2018 (GMT -0700)
Chadron Municipal

Weather History for KCDR - February, 2013

Change the Weather History Date:

Thursday, February 21, 2013

  Actual Average Record
Temperature  
Mean Temperature 22 °F 29 °F  
Max Temperature 26 °F 44 °F 76 °F (1982)
Min Temperature 18 °F 14 °F -10 °F (1918)
Degree Days  
Heating Degree Days 43 36  
Month to date heating degree days 721 808  
Since 1 July heating degree days 4659 5007  
Cooling Degree Days 0 0  
Month to date cooling degree days 0 0  
Year to date cooling degree days 0 0  
Moisture  
Dew Point 18 °F    
Average Humidity 83    
Maximum Humidity 92    
Minimum Humidity 74    
Precipitation  
Precipitation 0.07 in 0.02 in 0.40 in (1993)
Month to date precipitation 0.12 0.41  
Year to date precipitation 0.60 0.77  
Sea Level Pressure  
Sea Level Pressure 29.96 in    
Wind  
Wind Speed 4 mph (ENE)    
Max Wind Speed 12 mph    
Max Gust Speed 14 mph    
Visibility 2 miles    
Events Fog , Snow    
T = Trace of Precipitation, MM = Missing Value Source: NWS Daily Summary

Daily Weather History Graph

Daily Weather History Graph

Search for Another Location

Airport or City:

Trip Planner

Search our weather history database for the weather conditions in past years. The results will help you decide how hot, cold, wet, or windy it might be!

Date:

Astronomy

Feb. 21, 2013 Rise Set
Actual Time 6:40 AM MST 5:32 PM MST
Civil Twilight 6:11 AM MST 6:00 PM MST
Nautical Twilight 5:38 AM MST 6:33 PM MST
Astronomical Twilight 5:06 AM MST 7:06 PM MST
Moon 1:45 PM MST (2/21) 3:50 AM MST (2/21)
Length of Visible Light 11h 49m
Length of Day
10h 51m
Waxing Gibbous, 84% of the Moon is Illuminated
Feb 21
Waxing Gibbous
Feb 25
Full
Mar 4
Last Quarter
Mar 11
New
Mar 19
First Quarter

Hourly Weather History & Observations

Time (MST) Temp. Windchill Dew Point Humidity Pressure Visibility Wind Dir Wind Speed Gust Speed Precip Events Conditions
12:16 AM 21.2 °F 12.6 °F 17.6 °F 86% 29.88 in 1.2 mi SE 6.9 mph - 0.00 in Snow Light Snow
12:30 AM 21.2 °F 16.4 °F 19.4 °F 93% 29.88 in 0.8 mi SE 3.5 mph - 0.00 in Snow Light Snow
12:38 AM 21.2 °F - 19.4 °F 93% 29.88 in 1.0 mi Calm Calm - 0.00 in Snow Light Snow
12:53 AM 21.9 °F - 19.0 °F 89% 30.01 in 1.2 mi Calm Calm - 0.00 in Snow Light Snow
1:08 AM 21.2 °F - 19.4 °F 93% 29.88 in 1.5 mi Calm Calm - 0.00 in Snow Light Snow
1:23 AM 21.2 °F - 19.4 °F 93% 29.88 in 2.5 mi Calm Calm - 0.00 in Snow Light Snow
1:53 AM 21.9 °F 17.2 °F 19.0 °F 89% 30.01 in 2.0 mi NNE 3.5 mph - 0.00 in Snow Light Snow
2:35 AM 21.2 °F - 17.6 °F 86% 29.86 in 1.8 mi Calm Calm - 0.00 in Snow Light Snow
2:53 AM 21.0 °F 14.6 °F 18.0 °F 88% 30.01 in 1.8 mi ENE 4.6 mph - 0.00 in Snow Light Snow
3:11 AM 21.2 °F 14.9 °F 17.6 °F 86% 29.86 in 2.0 mi ENE 4.6 mph - 0.00 in Snow Light Snow
3:20 AM 21.2 °F 14.9 °F 17.6 °F 86% 29.87 in 1.2 mi ENE 4.6 mph - 0.00 in Snow Light Snow
3:53 AM 21.0 °F 14.6 °F 18.0 °F 88% 30.01 in 1.0 mi ENE 4.6 mph - 0.00 in Snow Light Snow
4:06 AM 19.4 °F 11.5 °F 17.6 °F 93% 29.87 in 1.2 mi ENE 5.8 mph - 0.00 in Snow Light Snow
4:24 AM 19.4 °F 11.5 °F 17.6 °F 93% 29.87 in 3.0 mi ENE 5.8 mph - 0.00 in Snow Light Snow
4:53 AM 19.9 °F 12.1 °F 17.1 °F 89% 30.03 in 4.0 mi East 5.8 mph - 0.00 in   Overcast
5:29 AM 19.4 °F 10.4 °F 17.6 °F 93% 29.89 in 2.0 mi SE 6.9 mph - 0.00 in Snow Light Snow
5:53 AM 19.0 °F 10.0 °F 16.0 °F 88% 30.04 in 3.0 mi SE 6.9 mph - 0.00 in Snow Light Snow
6:45 AM 17.6 °F - 15.8 °F 93% 29.91 in 6.0 mi Calm Calm - 0.00 in   Mostly Cloudy
6:53 AM 18.0 °F - 15.1 °F 88% 30.06 in 5.0 mi Calm Calm - 0.00 in   Mostly Cloudy
7:09 AM 19.4 °F - 15.8 °F 86% 29.91 in 2.5 mi Calm Calm - N/A   Overcast
7:44 AM 19.4 °F - 15.8 °F 86% 29.92 in 1.0 mi Calm Calm - 0.00 in Snow Light Snow
7:53 AM 19.9 °F - 16.0 °F 85% 30.07 in 1.0 mi Calm Calm - 0.00 in Snow Light Snow
8:38 AM 21.2 °F 12.6 °F 15.8 °F 80% 29.93 in 0.8 mi SSE 6.9 mph - 0.00 in Snow Light Snow
8:53 AM 21.0 °F 13.4 °F 16.0 °F 81% 30.08 in 1.0 mi SSE 5.8 mph - 0.00 in Snow Light Snow
9:13 AM 21.2 °F 10.9 °F 15.8 °F 80% 29.93 in 0.8 mi SSE 9.2 mph - 0.00 in Snow Light Snow
9:53 AM 21.0 °F 13.4 °F 17.1 °F 85% 30.08 in 0.5 mi South 5.8 mph - 0.00 in Fog , Snow Light Snow
10:53 AM 21.9 °F 13.4 °F 18.0 °F 85% 30.07 in 0.5 mi SW 6.9 mph - 0.00 in Fog , Snow Light Snow
11:53 AM 21.9 °F - 18.0 °F 85% 30.07 in 0.8 mi Calm Calm - 0.00 in Snow Light Snow
12:37 PM 24.8 °F 19.1 °F 19.4 °F 80% 29.90 in 1.0 mi North 4.6 mph - 0.05 in Snow Light Snow
12:53 PM 24.1 °F 19.7 °F 19.0 °F 81% 30.04 in 1.0 mi NNW 3.5 mph - 0.06 in Snow Light Snow
1:08 PM 24.8 °F 20.5 °F 19.4 °F 80% 29.89 in 1.5 mi NNE 3.5 mph - 0.01 in Snow Light Snow
1:19 PM 24.8 °F 20.5 °F 19.4 °F 80% 29.89 in 1.2 mi NNE 3.5 mph - 0.01 in Snow Light Snow
1:29 PM 24.8 °F 20.5 °F 19.4 °F 80% 29.89 in 1.0 mi NE 3.5 mph - 0.01 in Snow Light Snow
1:53 PM 25.0 °F 17.1 °F 21.0 °F 85% 30.02 in 1.0 mi NE 6.9 mph - 0.01 in Snow Light Snow
2:25 PM 24.8 °F 15.3 °F 19.4 °F 80% 29.88 in 2.5 mi ENE 9.2 mph - 0.00 in   Haze
2:33 PM 24.8 °F 16.1 °F 19.4 °F 80% 29.88 in 3.0 mi NE 8.1 mph - 0.00 in   Haze
2:44 PM 24.8 °F 15.3 °F 19.4 °F 80% 29.88 in 4.0 mi NE 9.2 mph - 0.00 in   Haze
2:53 PM 25.0 °F 15.5 °F 19.0 °F 78% 30.02 in 4.0 mi NE 9.2 mph - 0.00 in   Haze
3:53 PM 25.0 °F 17.1 °F 17.1 °F 72% 30.03 in 8.0 mi ENE 6.9 mph - N/A   Overcast
4:53 PM 24.1 °F 17.0 °F 18.0 °F 77% 30.05 in 6.0 mi North 5.8 mph - N/A   Haze
5:53 PM 23.0 °F 15.8 °F 19.0 °F 85% 30.06 in 3.0 mi NE 5.8 mph - 0.00 in Snow Light Snow
6:51 PM 23.0 °F 17.0 °F 19.4 °F 86% 29.92 in 2.5 mi ENE 4.6 mph - 0.00 in Snow Light Snow
6:53 PM 21.9 °F 14.5 °F 19.0 °F 89% 30.08 in 2.5 mi ENE 5.8 mph - 0.00 in Snow Light Snow
7:01 PM 21.2 °F 13.6 °F 19.4 °F 93% 29.92 in 3.0 mi ENE 5.8 mph - 0.00 in Snow Light Snow
7:50 PM 21.2 °F - 17.6 °F 86% 29.91 in 5.0 mi Calm Calm - 0.00 in   Haze
7:53 PM 21.9 °F - 17.1 °F 82% 30.07 in 5.0 mi Calm Calm - 0.00 in   Haze
8:24 PM 21.2 °F - 17.6 °F 86% 29.91 in 7.0 mi Calm Calm - N/A   Overcast
8:51 PM 21.2 °F 14.9 °F 17.6 °F 86% 29.92 in 1.8 mi NE 4.6 mph - 0.00 in Snow Light Snow
8:53 PM 21.0 °F 14.6 °F 18.0 °F 88% 30.07 in 1.5 mi NE 4.6 mph - 0.00 in Snow Light Snow
9:06 PM 21.2 °F 13.6 °F 17.6 °F 86% 29.92 in 1.5 mi ENE 5.8 mph - 0.00 in Snow Light Snow
9:53 PM 19.9 °F - 17.1 °F 89% 30.07 in 2.0 mi Calm Calm - 0.00 in Snow Light Snow
10:11 PM 19.4 °F 14.3 °F 17.6 °F 93% 29.91 in 3.0 mi East 3.5 mph - 0.00 in   Overcast
10:53 PM 19.9 °F - 17.1 °F 89% 30.06 in 7.0 mi Calm Calm - 0.00 in   Overcast
11:11 PM 19.4 °F - 17.6 °F 93% 29.91 in 1.5 mi Calm Calm - 0.00 in Snow Light Snow
11:53 PM 19.0 °F - 17.1 °F 92% 30.06 in 3.0 mi Calm Calm - 0.00 in Snow Light Snow